[[{"header":{"parameterUnit":"m.s-1","parameterCategory":1,"la1":30.2991,"la2":30.254,"lo1":-89.0895,"lo2":-89.0444,"dy":0.0017,"dx":0.0017,"nx":28,"ny":28,"refTime":"2025-11-21T03:00:00:Z","depth":0,"parameterNumber":2,"parameterNumberName":"U-component_of_WINDS"},"data":[0,0,0,0,0,0,0,0,0,0,0,0,0,0,0,0,0,0,0,0,0,0,0,0,0,0,0,0,0,0,0,0,0,0,0,0,0,0,0,0,0,0,0,0,0,0,0,0,0,0,0,0,0,0,0,0,0,0,-3.0674,-3.0675,0,-3.077,-3.0771,-3.0772,-3.0775,-3.0774,-3.0773,-3.0772,-3.0869,-3.0873,-3.0877,0,0,0,0,0,0,0,0,0,0,0,0,0,-3.0491,-3.0494,-3.0674,-3.0675,-3.0676,-3.077,-3.0771,-3.0773,-3.0775,-3.0774,-3.0772,-3.0771,-3.0868,-3.0873,-3.0877,0,0,0,0,0,0,0,0,0,0,0,0,0,-3.0577,-3.0495,-3.0673,-3.0689,-3.0691,-3.077,-3.0771,-3.0773,-3.0776,-3.0774,-3.0772,-3.077,-3.0867,-3.0872,-3.0878,-3.0947,0,0,-3.0895,-3.0897,0,0,0,0,0,0,0,0,-3.0572,-3.0584,-3.0685,-3.0688,-3.0691,-3.0759,-3.0743,-3.0831,-3.0776,-3.0743,-3.0772,-3.077,-3.0834,-3.0842,-3.0864,-3.0952,-3.0956,-3.0895,-3.0898,-3.0901,-3.0902,0,0,0,0,0,0,0,-3.0566,-3.058,-3.0712,-3.0687,-3.069,-3.069,-3.0701,-3.076,-3.0797,-3.0746,-3.0747,-3.0758,-3.0835,-3.0859,-3.0866,-3.0957,-3.0895,-3.09,-3.0903,-3.0905,-3.1107,-3.1109,0,0,0,0,0,0,-3.0557,-3.0575,-3.0709,-3.0715,-3.0626,-3.0695,-3.0707,-3.0739,-3.0797,-3.0804,-3.0759,-3.0758,-3.085,-3.086,-3.087,-3.0954,-3.0901,-3.0906,-3.0909,-3.1105,-3.1107,-3.1109,0,0,0,0,0,0,-3.0553,-3.0569,-3.0705,-3.0645,-3.0662,-3.07,-3.0736,-3.0742,-3.0765,-3.0807,-3.0814,-3.0777,-3.0849,-3.0862,-3.0928,-3.0958,-3.0908,-3.0914,-3.1102,-3.1106,-3.1108,-3.1124,0,0,0,0,0,0,-3.0548,-3.0568,-3.0595,-3.0645,-3.0665,-3.0762,-3.0738,-3.0745,-3.0775,-3.0774,-3.0825,-3.0832,-3.0849,-3.092,-3.0933,-3.0964,-3.0918,-3.11,-3.1104,-3.1107,-3.1121,-3.1127,-3.1133,0,0,0,0,0,-3.0541,-3.0595,-3.0596,-3.0612,-3.07,-3.0763,-3.0775,-3.0794,-3.0777,-3.0804,-3.0831,-3.083,-3.0953,-3.0926,-3.0942,-3.0975,-3.1098,-3.1103,-3.1107,-3.1119,-3.1126,-3.1133,0,0,0,0,0,0,-3.0546,-3.0602,-3.0604,-3.0676,-3.0715,-3.0764,-3.0798,-3.0801,-3.0845,-3.0842,-3.0864,-3.0875,-3.0941,-3.0965,-3.0934,-3.1045,-3.1023,-3.1031,-3.1027,-3.1034,-3.104,-3.1032,-3.0922,0,0,0,0,0,-3.0556,-3.0603,-3.0649,-3.0708,-3.0728,-3.076,-3.0788,-3.08,-3.0841,-3.0857,-3.0889,-3.0929,-3.0976,-3.1007,-3.1053,-3.1126,-3.1136,-3.1156,-3.1162,-3.1167,-3.1172,-3.1212,-3.1221,-3.1124,-3.1124,-3.1124,0,0,-3.0576,-3.0612,-3.0641,-3.071,-3.0742,-3.079,-3.0774,-3.0825,-3.0861,-3.0865,-3.0929,-3.0954,-3.1,-3.1069,-3.1101,-3.1091,-3.1202,-3.1172,-3.1176,-3.1179,-3.1217,-3.1226,-3.1234,-3.1127,-3.1127,-3.1126,0,0,-3.0636,-3.0669,-3.0722,-3.0754,-3.0802,-3.0823,-3.0836,-3.0885,-3.0901,-3.0966,-3.097,-3.1013,-3.1095,-3.1127,-3.1154,-3.1228,-3.1228,-3.1243,-3.1272,-3.131,-3.1317,-3.1324,-3.1349,-3.1358,-3.1249,-3.1249,-3.1249,0,-3.0655,-3.0727,-3.0748,-3.0799,-3.0829,-3.0837,-3.0889,-3.092,-3.098,-3.1001,-3.0989,-3.1092,-3.1123,-3.12,-3.1218,-3.124,-3.1254,-3.1236,-3.1315,-3.1322,-3.1328,-3.1352,-3.1362,-3.125,-3.125,-3.125,-3.125,0,-3.0747,-3.0797,-3.0834,-3.0892,-3.0927,-3.0979,-3.1007,-3.1039,-3.1048,-3.107,-3.1136,-3.1174,-3.1228,-3.1248,-3.1257,-3.1325,-3.1317,-3.131,-3.1288,-3.1339,-3.1361,-3.1371,-3.1252,-3.1251,-3.1251,-3.1251,0,0,-3.0811,-3.0882,-3.0894,-3.0921,-3.0975,-3.1014,-3.1067,-3.112,-3.1146,-3.1189,-3.1232,-3.1302,-3.1296,-3.1326,-3.1339,-3.1373,-3.1427,-3.1362,-3.1363,-3.1371,-3.1504,-3.1508,-3.1518,-3.1429,-3.1431,-3.1432,-3.15,0,-3.0876,-3.0969,-3.099,-3.1069,-3.1116,-3.1124,-3.1169,-3.1207,-3.123,-3.1272,-3.1297,-3.1345,-3.1334,-3.1353,-3.1386,-3.1413,-3.1454,-3.1409,-3.1468,-3.147,-3.1454,-3.153,-3.1534,-3.1596,-3.1509,-3.151,-3.1512,0,-3.0964,-3.1008,-3.1093,-3.1141,-3.1161,-3.1201,-3.1251,-3.1292,-3.1336,-3.135,-3.1385,-3.1394,-3.1448,-3.1425,-3.15,-3.1469,-3.1495,-3.1512,-3.1515,-3.1519,-3.1492,-3.1535,-3.1617,-3.1625,-3.1526,-3.1525,-3.1524,0,-3.1001,-3.1082,-3.1142,-3.1165,-3.1223,-3.1251,-3.1277,-3.1318,-3.1349,-3.1393,-3.1413,-3.1463,-3.1489,-3.1528,-3.155,-3.1532,-3.1623,-3.1602,-3.1635,-3.1634,-3.1652,-3.165,-3.1737,-3.1672,-3.1672,-3.1672,-3.1671,0,-3.107,-3.1121,-3.1159,-3.1196,-3.1254,-3.1277,-3.1333,-3.1358,-3.1396,-3.1438,-3.1448,-3.1487,-3.1516,-3.1559,-3.1578,-3.1636,-3.1648,-3.1661,-3.1664,-3.1658,-3.1657,-3.1674,-3.1669,-3.1674,-3.1673,-3.1673,-3.1673,0,-3.1119,-3.1147,-3.1214,-3.1264,-3.1277,-3.1317,-3.136,-3.1396,-3.1419,-3.1472,-3.1486,-3.1522,-3.1574,-3.1601,-3.1665,-3.1677,-3.1742,-3.1745,-3.1727,-3.1728,-3.1759,-3.1755,-3.1858,-3.1873,-3.18,-3.1801,-3.1801,0,-3.116,-3.12,-3.1254,-3.1283,-3.1309,-3.1356,-3.1387,-3.1412,-3.1444,-3.1496,-3.1526,-3.1578,-3.1621,-3.1702,-3.1734,-3.1783,-3.1786,-3.1819,-3.1793,-3.1786,-3.1784,-3.1781,-3.1784,-3.1822,-3.1823,-3.1824,-3.1824,0,-3.123,-3.1242,-3.1287,-3.1337,-3.1374,-3.1414,-3.1454,-3.1477,-3.1508,-3.1544,-3.1596,-3.163,-3.1695,-3.1746,-3.1798,-3.1824,-3.1829,-3.1832,-3.1842,-3.1835,-3.1823,-3.1828,-3.1737,-3.1829,-3.1829,-3.1828,-3.1828,-3.1828,-3.1276,-3.1311,-3.1354,-3.1403,-3.1436,-3.1473,-3.1509,-3.1538,-3.1582,-3.1637,-3.165,-3.1705,-3.1748,-3.1818,-3.1845,-3.1889,-3.1882,-3.1897,-3.19,-3.1903,-3.1903,-3.1818,-3.1899,-3.1899,-3.1898,-3.1898,-3.1898,0,-3.1344,-3.1373,-3.1418,-3.1474,-3.1512,-3.1515,-3.1559,-3.1591,-3.164,-3.1679,-3.1721,-3.1782,-3.1832,-3.1868,-3.1919,-3.1946,-3.195,-3.1959,-3.1956,-3.1962,-3.1907,-3.1893,-3.1955,-3.1955,-3.1955,-3.1955,-3.1955,-3.1955,-3.1384,-3.1443,-3.1461,-3.1536,-3.1564,-3.1619,-3.1644,-3.1678,-3.1709,-3.1776,-3.1818,-3.1841,-3.188,-3.1933,-3.1979,-3.1989,-3.2006,-3.2014,-3.2023,-3.1972,-3.1965,-3.196,-3.1946,-3.2018,-3.2018,-3.2074,-3.2074,-3.2075]},{"header":{"parameterUnit":"m.s-1","parameterCategory":1,"la1":30.2991,"la2":30.254,"lo1":-89.0895,"lo2":-89.0444,"dy":0.0017,"dx":0.0017,"nx":28,"ny":28,"refTime":"2025-11-21T03:00:00:Z","depth":0,"parameterNumber":3,"parameterNumberName":"V-component_of_WINDS"},"data":[0,0,0,0,0,0,0,0,0,0,0,0,0,0,0,0,0,0,0,0,0,0,0,0,0,0,0,0,0,0,0,0,0,0,0,0,0,0,0,0,0,0,0,0,0,0,0,0,0,0,0,0,0,0,0,0,0,0,1.4251,1.4252,0,1.4359,1.436,1.4361,1.4399,1.4398,1.4398,1.4397,1.4509,1.4512,1.4515,0,0,0,0,0,0,0,0,0,0,0,0,0,1.4079,1.4081,1.425,1.4252,1.4253,1.4359,1.436,1.4362,1.4399,1.4398,1.4398,1.4397,1.4508,1.4512,1.4516,0,0,0,0,0,0,0,0,0,0,0,0,0,1.4167,1.4082,1.425,1.4284,1.4289,1.4358,1.436,1.4362,1.4399,1.4398,1.4398,1.4397,1.4506,1.4511,1.4516,1.456,0,0,1.4532,1.4534,0,0,0,0,0,0,0,0,1.4162,1.4173,1.4278,1.4282,1.4287,1.4365,1.434,1.4428,1.4399,1.4357,1.4397,1.4397,1.4461,1.447,1.4492,1.4565,1.457,1.4532,1.4535,1.4537,1.4539,0,0,0,0,0,0,0,1.4155,1.4168,1.4293,1.428,1.4285,1.4295,1.4307,1.4357,1.4411,1.4361,1.4364,1.4376,1.4464,1.4487,1.4495,1.4571,1.4532,1.4536,1.4539,1.4541,1.469,1.4691,0,0,0,0,0,0,1.4143,1.4163,1.429,1.4297,1.4221,1.4299,1.4312,1.434,1.4411,1.4421,1.4376,1.4377,1.4478,1.4489,1.4499,1.4557,1.4537,1.4542,1.4545,1.4689,1.4691,1.4692,0,0,0,0,0,0,1.4139,1.4154,1.4286,1.4231,1.4248,1.4303,1.4334,1.4343,1.4366,1.4423,1.4433,1.439,1.4478,1.4492,1.4545,1.4561,1.4544,1.4549,1.4688,1.469,1.4691,1.4673,0,0,0,0,0,0,1.4134,1.4153,1.4169,1.4231,1.4251,1.4329,1.4335,1.4345,1.4375,1.4377,1.4438,1.4448,1.4479,1.4538,1.455,1.4568,1.4553,1.4687,1.4689,1.4691,1.4672,1.4673,1.4674,0,0,0,0,0,1.4128,1.4159,1.417,1.4185,1.4272,1.433,1.4342,1.4377,1.4376,1.4393,1.443,1.4446,1.4557,1.4543,1.4557,1.4577,1.4686,1.4688,1.469,1.4672,1.4673,1.4674,0,0,0,0,0,0,1.4096,1.4167,1.418,1.4231,1.4275,1.4336,1.4359,1.4377,1.4421,1.4421,1.4463,1.4477,1.4528,1.4558,1.454,1.4625,1.4623,1.4628,1.4604,1.4605,1.4606,1.4599,1.4557,0,0,0,0,0,1.4095,1.4136,1.4196,1.4235,1.4257,1.4304,1.4331,1.4354,1.4401,1.4419,1.446,1.4505,1.4551,1.4579,1.4624,1.4677,1.4692,1.4698,1.4699,1.4699,1.4703,1.4737,1.4741,1.4698,1.4698,1.4698,0,0,1.4094,1.4137,1.416,1.423,1.4266,1.4309,1.4319,1.4362,1.4395,1.4426,1.448,1.4511,1.4564,1.4618,1.4644,1.4645,1.4719,1.4702,1.4702,1.4706,1.4739,1.4743,1.4747,1.47,1.47,1.4699,0,0,1.4112,1.4149,1.4187,1.4224,1.4279,1.4311,1.432,1.4381,1.4403,1.4458,1.4483,1.4523,1.4599,1.4637,1.4666,1.4703,1.472,1.4717,1.4723,1.4755,1.4758,1.4761,1.4777,1.4782,1.472,1.472,1.472,0,1.4103,1.4167,1.4204,1.4248,1.4279,1.431,1.4351,1.4384,1.4451,1.4473,1.4472,1.4572,1.461,1.4675,1.4684,1.4706,1.4719,1.471,1.4754,1.4758,1.4761,1.4777,1.4782,1.472,1.472,1.472,1.472,0,1.4155,1.4199,1.4223,1.4289,1.4323,1.4364,1.4409,1.4439,1.4461,1.4493,1.4551,1.4598,1.4654,1.4671,1.4691,1.474,1.4739,1.4746,1.4745,1.4764,1.478,1.4786,1.4719,1.4719,1.4719,1.4719,0,0,1.4154,1.4242,1.4251,1.4282,1.4347,1.4382,1.4426,1.4482,1.4509,1.4554,1.4594,1.466,1.4668,1.4701,1.4727,1.4755,1.4785,1.4759,1.4761,1.4764,1.4844,1.484,1.4846,1.4796,1.4797,1.4798,1.4841,0,1.4183,1.4263,1.4299,1.4363,1.4406,1.4438,1.4477,1.4522,1.4555,1.4597,1.4633,1.468,1.4685,1.4706,1.4735,1.4775,1.4802,1.4772,1.4835,1.4837,1.4822,1.4853,1.4848,1.4885,1.4846,1.4848,1.4848,0,1.4226,1.4273,1.4342,1.4405,1.4425,1.4459,1.4515,1.4554,1.4607,1.4629,1.4668,1.4693,1.4743,1.4738,1.4809,1.4788,1.4816,1.484,1.4842,1.485,1.4844,1.4864,1.4898,1.4904,1.4858,1.4857,1.4856,0,1.4222,1.4302,1.4355,1.4381,1.4455,1.4479,1.4511,1.4563,1.4595,1.4645,1.4667,1.4721,1.475,1.4793,1.4833,1.4825,1.4901,1.4899,1.4922,1.4921,1.4937,1.4935,1.4977,1.4952,1.4952,1.4952,1.4952,0,1.425,1.4291,1.4355,1.4387,1.4435,1.4478,1.4525,1.4559,1.4606,1.4647,1.4678,1.4715,1.4766,1.4811,1.4842,1.4898,1.491,1.4931,1.4939,1.4929,1.4927,1.4949,1.4948,1.4954,1.4953,1.4953,1.4953,0,1.4253,1.4296,1.4356,1.4423,1.4441,1.4473,1.4531,1.4565,1.46,1.4651,1.4666,1.4721,1.4776,1.4821,1.4892,1.4914,1.4972,1.4981,1.4955,1.4959,1.4981,1.4979,1.5039,1.5051,1.5016,1.5017,1.5017,0,1.4268,1.4301,1.4372,1.4402,1.4434,1.4481,1.4515,1.456,1.4594,1.4659,1.4685,1.4743,1.4791,1.4877,1.4925,1.498,1.4992,1.5009,1.5,1.499,1.4995,1.4993,1.4998,1.501,1.501,1.501,1.501,0,1.4292,1.4313,1.436,1.4417,1.4457,1.4503,1.455,1.4573,1.4627,1.4664,1.4721,1.4759,1.4834,1.4891,1.4952,1.4987,1.5009,1.5013,1.5022,1.5012,1.4997,1.5008,1.4959,1.5011,1.5011,1.5011,1.5011,1.5011,1.4303,1.4335,1.4391,1.4444,1.4485,1.4529,1.4565,1.4606,1.4654,1.4718,1.4742,1.4801,1.4857,1.4942,1.4977,1.5025,1.5027,1.5039,1.5043,1.5045,1.5045,1.4988,1.5036,1.5036,1.5037,1.5037,1.5037,0,1.433,1.4368,1.4417,1.4483,1.4526,1.4543,1.4597,1.4632,1.4683,1.4733,1.4781,1.4849,1.4906,1.4959,1.5019,1.5047,1.5059,1.5062,1.5061,1.5069,1.5039,1.5026,1.5052,1.5052,1.5052,1.5052,1.5052,1.5052,1.4349,1.4405,1.4433,1.4511,1.455,1.4608,1.4638,1.468,1.4721,1.4795,1.4843,1.4877,1.493,1.4994,1.5048,1.5063,1.5084,1.5085,1.5102,1.5073,1.5071,1.5069,1.5057,1.5089,1.5089,1.5129,1.5129,1.5129]}]]